Time,TemperatureF,DewpointF,PressureIn,WindDirection,WindDirectionDegrees,WindSpeedMPH,WindSpeedGustMPH,Humidity,HourlyPrecipIn,Conditions,Clouds,dailyrainin,SoftwareType,DateUTC
2017-05-28 00:04:00,60.0,59.0,29.96,ENE,60,0.0,0.0,95,0.00,,,0.00,weatherlink.com 1.10,2017-05-28 04:04:00,
2017-05-28 00:19:00,59.9,59.0,29.97,ENE,60,0.0,0.0,95,0.00,,,0.00,weatherlink.com 1.10,2017-05-28 04:19:00,
2017-05-28 00:34:00,59.8,58.0,29.96,ENE,61,0.0,0.0,95,0.00,,,0.00,weatherlink.com 1.10,2017-05-28 04:34:00,
2017-05-28 00:49:00,59.5,58.0,29.95,ENE,60,0.0,0.0,96,0.00,,,0.00,weatherlink.com 1.10,2017-05-28 04:49:00,
2017-05-28 01:04:00,59.0,58.0,29.94,ENE,61,0.0,0.0,95,0.00,,,0.00,weatherlink.com 1.10,2017-05-28 05:04:00,
2017-05-28 01:19:00,58.6,58.0,29.93,ENE,61,0.0,0.0,96,0.00,,,0.00,weatherlink.com 1.10,2017-05-28 05:19:00,
2017-05-28 01:34:00,58.2,57.0,29.92,ENE,61,0.0,0.0,96,0.00,,,0.00,weatherlink.com 1.10,2017-05-28 05:34:00,
2017-05-28 01:49:00,58.1,57.0,29.93,ENE,61,0.0,0.0,96,0.00,,,0.00,weatherlink.com 1.10,2017-05-28 05:49:00,
2017-05-28 02:04:00,57.8,57.0,29.93,ENE,61,0.0,0.0,96,0.00,,,0.00,weatherlink.com 1.10,2017-05-28 06:04:00,
2017-05-28 02:19:00,57.3,56.0,29.92,ENE,61,0.0,0.0,96,0.00,,,0.00,weatherlink.com 1.10,2017-05-28 06:19:00,
2017-05-28 02:34:00,57.0,56.0,29.92,ENE,61,0.0,0.0,96,0.00,,,0.00,weatherlink.com 1.10,2017-05-28 06:34:00,
2017-05-28 02:49:00,56.8,56.0,29.93,ENE,61,0.0,0.0,97,0.00,,,0.00,weatherlink.com 1.10,2017-05-28 06:49:00,
2017-05-28 03:04:00,56.6,56.0,29.92,ENE,60,0.0,0.0,97,0.00,,,0.00,weatherlink.com 1.10,2017-05-28 07:04:00,
2017-05-28 03:19:00,56.5,56.0,29.91,ENE,61,0.0,0.0,97,0.00,,,0.00,weatherlink.com 1.10,2017-05-28 07:19:00,
2017-05-28 03:34:00,56.8,56.0,29.92,ENE,61,0.0,0.0,97,0.00,,,0.00,weatherlink.com 1.10,2017-05-28 07:34:00,
2017-05-28 03:49:00,56.7,56.0,29.93,ENE,61,0.0,0.0,97,0.00,,,0.00,weatherlink.com 1.10,2017-05-28 07:49:00,
2017-05-28 04:04:00,56.9,56.0,29.92,ENE,60,0.0,0.0,97,0.00,,,0.00,weatherlink.com 1.10,2017-05-28 08:04:00,
2017-05-28 04:19:00,56.8,56.0,29.91,ENE,60,0.0,0.0,97,0.00,,,0.00,weatherlink.com 1.10,2017-05-28 08:19:00,
2017-05-28 04:34:00,56.4,56.0,29.91,ENE,61,0.0,0.0,97,0.00,,,0.00,weatherlink.com 1.10,2017-05-28 08:34:00,
2017-05-28 04:49:00,56.1,55.0,29.91,ENE,61,0.0,0.0,97,0.00,,,0.00,weatherlink.com 1.10,2017-05-28 08:49:00,
2017-05-28 05:04:00,55.8,55.0,29.91,ENE,60,0.0,0.0,97,0.00,,,0.00,weatherlink.com 1.10,2017-05-28 09:04:00,
2017-05-28 05:19:00,56.0,56.0,29.92,ENE,60,0.0,0.0,98,0.00,,,0.00,weatherlink.com 1.10,2017-05-28 09:19:00,
2017-05-28 05:34:00,56.6,56.0,29.92,ENE,61,0.0,0.0,98,0.00,,,0.00,weatherlink.com 1.10,2017-05-28 09:34:00,
2017-05-28 05:49:00,57.5,57.0,29.92,ENE,61,0.0,0.0,98,0.00,,,0.00,weatherlink.com 1.10,2017-05-28 09:49:00,
2017-05-28 06:04:00,57.8,57.0,29.93,ENE,60,0.0,0.0,98,0.00,,,0.00,weatherlink.com 1.10,2017-05-28 10:04:00,
2017-05-28 06:19:00,58.0,58.0,29.93,ENE,61,0.0,0.0,98,0.00,,,0.00,weatherlink.com 1.10,2017-05-28 10:19:00,
2017-05-28 06:34:00,58.2,58.0,29.93,ENE,60,0.0,0.0,98,0.00,,,0.00,weatherlink.com 1.10,2017-05-28 10:34:00,
2017-05-28 06:49:00,58.4,58.0,29.93,ENE,75,0.0,1.0,98,0.00,,,0.00,weatherlink.com 1.10,2017-05-28 10:49:00,
2017-05-28 07:04:00,58.8,58.0,29.93,East,99,0.0,0.0,98,0.00,,,0.00,weatherlink.com 1.10,2017-05-28 11:04:00,
2017-05-28 07:19:00,59.2,59.0,29.92,East,84,0.0,2.0,98,0.00,,,0.00,weatherlink.com 1.10,2017-05-28 11:19:00,
2017-05-28 07:34:00,59.6,59.0,29.93,East,97,1.0,2.0,98,0.00,,,0.00,weatherlink.com 1.10,2017-05-28 11:34:00,
2017-05-28 07:49:00,60.4,60.0,29.93,ESE,110,0.0,1.0,98,0.00,,,0.00,weatherlink.com 1.10,2017-05-28 11:49:00,
2017-05-28 08:04:00,61.0,61.0,29.93,SE,131,0.0,1.0,98,0.00,,,0.00,weatherlink.com 1.10,2017-05-28 12:04:00,
2017-05-28 08:19:00,61.5,61.0,29.92,SE,131,0.0,1.0,98,0.00,,,0.00,weatherlink.com 1.10,2017-05-28 12:19:00,
2017-05-28 08:34:00,62.2,62.0,29.92,ESE,121,0.0,1.0,98,0.00,,,0.00,weatherlink.com 1.10,2017-05-28 12:34:00,
2017-05-28 08:50:00,64.2,63.0,29.93,ENE,64,0.0,2.0,96,0.00,,,0.00,weatherlink.com 1.10,2017-05-28 12:50:00,
2017-05-28 09:05:00,65.1,62.0,29.94,ENE,74,2.0,3.0,90,0.00,,,0.00,weatherlink.com 1.10,2017-05-28 13:05:00,
2017-05-28 09:20:00,65.9,62.0,29.94,ENE,69,2.0,2.0,86,0.00,,,0.00,weatherlink.com 1.10,2017-05-28 13:20:00,
2017-05-28 09:35:00,65.8,61.0,29.93,ENE,60,0.0,3.0,83,0.00,,,0.00,weatherlink.com 1.10,2017-05-28 13:35:00,
2017-05-28 09:50:00,66.2,61.0,29.93,ESE,110,0.0,5.0,82,0.00,,,0.00,weatherlink.com 1.10,2017-05-28 13:50:00,
2017-05-28 10:05:00,66.9,61.0,29.93,ENE,64,0.0,3.0,81,0.00,,,0.00,weatherlink.com 1.10,2017-05-28 14:05:00,
2017-05-28 10:20:00,67.7,61.0,29.93,ENE,64,0.0,4.0,79,0.00,,,0.00,weatherlink.com 1.10,2017-05-28 14:20:00,
2017-05-28 10:35:00,70.0,63.0,29.92,WSW,253,0.0,2.0,77,0.00,,,0.00,weatherlink.com 1.10,2017-05-28 14:35:00,
2017-05-28 10:50:00,70.6,62.0,29.92,NE,56,1.0,3.0,75,0.00,,,0.00,weatherlink.com 1.10,2017-05-28 14:50:00,
2017-05-28 11:05:00,70.4,63.0,29.93,East,94,1.0,6.0,76,0.00,,,0.00,weatherlink.com 1.10,2017-05-28 15:05:00,
2017-05-28 11:20:00,71.1,62.0,29.93,South,188,2.0,6.0,72,0.00,,,0.00,weatherlink.com 1.10,2017-05-28 15:20:00,
2017-05-28 11:35:00,72.5,62.0,29.93,ENE,66,1.0,8.0,70,0.00,,,0.00,weatherlink.com 1.10,2017-05-28 15:35:00,
2017-05-28 11:50:00,73.5,62.0,29.93,ENE,67,0.0,6.0,68,0.00,,,0.00,weatherlink.com 1.10,2017-05-28 15:50:00,
2017-05-28 12:05:00,73.2,62.0,29.92,ENE,78,3.0,6.0,69,0.00,,,0.00,weatherlink.com 1.10,2017-05-28 16:05:00,
2017-05-28 12:20:00,74.5,63.0,29.92,ENE,78,2.0,4.0,68,0.00,,,0.00,weatherlink.com 1.10,2017-05-28 16:20:00,
2017-05-28 12:35:00,74.1,63.0,29.92,ENE,70,2.0,7.0,68,0.00,,,0.00,weatherlink.com 1.10,2017-05-28 16:35:00,
2017-05-28 12:50:00,73.4,63.0,29.92,NNE,26,1.0,4.0,69,0.00,,,0.00,weatherlink.com 1.10,2017-05-28 16:50:00,
2017-05-28 13:05:00,71.9,63.0,29.92,NE,56,0.0,4.0,73,0.00,,,0.00,weatherlink.com 1.10,2017-05-28 17:05:00,
2017-05-28 13:20:00,69.1,64.0,29.92,SSE,149,0.0,2.0,83,0.04,,,0.04,weatherlink.com 1.10,2017-05-28 17:20:00,
2017-05-28 13:35:00,67.4,65.0,29.91,WSW,238,0.0,1.0,90,0.12,,,0.12,weatherlink.com 1.10,2017-05-28 17:35:00,
2017-05-28 13:50:00,67.4,65.0,29.91,WSW,237,0.0,0.0,93,0.13,,,0.13,weatherlink.com 1.10,2017-05-28 17:50:00,
2017-05-28 14:05:00,67.6,66.0,29.92,WSW,238,0.0,1.0,93,0.13,,,0.13,weatherlink.com 1.10,2017-05-28 18:05:00,
2017-05-28 14:20:00,67.2,65.0,29.92,NE,54,0.0,2.0,93,0.08,,,0.13,weatherlink.com 1.10,2017-05-28 18:20:00,
2017-05-28 14:35:00,66.7,65.0,29.92,NE,41,0.0,1.0,93,0.03,,,0.15,weatherlink.com 1.10,2017-05-28 18:35:00,
2017-05-28 15:05:00,65.8,64.0,29.91,ENE,74,0.0,0.0,95,0.15,,,0.28,weatherlink.com 1.10,2017-05-28 19:05:00,
2017-05-28 15:20:00,66.3,65.0,29.91,ENE,66,2.0,2.0,96,0.17,,,0.30,weatherlink.com 1.10,2017-05-28 19:20:00,
2017-05-28 15:35:00,66.2,65.0,29.90,ENE,65,0.0,4.0,94,0.15,,,0.30,weatherlink.com 1.10,2017-05-28 19:35:00,
2017-05-28 15:50:00,66.1,64.0,29.90,ENE,78,0.0,3.0,94,0.14,,,0.30,weatherlink.com 1.10,2017-05-28 19:50:00,
2017-05-28 16:05:00,66.4,65.0,29.89,SE,129,0.0,1.0,95,0.02,,,0.30,weatherlink.com 1.10,2017-05-28 20:05:00,
2017-05-28 16:20:00,66.1,64.0,29.89,ENE,67,0.0,1.0,94,0.00,,,0.30,weatherlink.com 1.10,2017-05-28 20:20:00,
2017-05-28 16:35:00,66.2,65.0,29.89,ESE,114,0.0,2.0,95,0.00,,,0.30,weatherlink.com 1.10,2017-05-28 20:35:00,
2017-05-28 16:50:00,65.9,64.0,29.88,ENE,69,1.0,2.0,94,0.00,,,0.30,weatherlink.com 1.10,2017-05-28 20:50:00,
2017-05-28 17:05:00,65.6,64.0,29.88,ENE,73,1.0,3.0,94,0.00,,,0.30,weatherlink.com 1.10,2017-05-28 21:05:00,
2017-05-28 17:20:00,65.7,64.0,29.87,ESE,102,0.0,3.0,95,0.00,,,0.30,weatherlink.com 1.10,2017-05-28 21:20:00,
2017-05-28 17:35:00,65.7,64.0,29.88,SE,127,1.0,4.0,95,0.00,,,0.30,weatherlink.com 1.10,2017-05-28 21:35:00,
2017-05-28 17:51:00,66.0,65.0,29.88,East,85,0.0,2.0,95,0.00,,,0.30,weatherlink.com 1.10,2017-05-28 21:51:00,
2017-05-28 18:06:00,66.1,64.0,29.88,East,89,0.0,1.0,94,0.00,,,0.30,weatherlink.com 1.10,2017-05-28 22:06:00,
2017-05-28 18:20:00,65.9,64.0,29.87,ENE,63,0.0,2.0,94,0.00,,,0.30,weatherlink.com 1.10,2017-05-28 22:20:00,
2017-05-28 18:36:00,65.8,64.0,29.88,SE,141,0.0,2.0,95,0.00,,,0.30,weatherlink.com 1.10,2017-05-28 22:36:00,
2017-05-28 18:51:00,65.7,64.0,29.88,SE,139,0.0,1.0,95,0.00,,,0.30,weatherlink.com 1.10,2017-05-28 22:51:00,
2017-05-28 19:06:00,65.6,64.0,29.88,SE,139,0.0,0.0,95,0.00,,,0.30,weatherlink.com 1.10,2017-05-28 23:06:00,
2017-05-28 19:21:00,65.6,64.0,29.88,SE,134,0.0,2.0,95,0.00,,,0.30,weatherlink.com 1.10,2017-05-28 23:21:00,
2017-05-28 19:36:00,65.6,64.0,29.88,SE,134,0.0,0.0,95,0.00,,,0.30,weatherlink.com 1.10,2017-05-28 23:36:00,
2017-05-28 19:51:00,65.5,64.0,29.89,SE,134,0.0,0.0,96,0.00,,,0.30,weatherlink.com 1.10,2017-05-28 23:51:00,
2017-05-28 20:06:00,65.5,64.0,29.88,SE,143,0.0,2.0,96,0.00,,,0.30,weatherlink.com 1.10,2017-05-29 00:06:00,
2017-05-28 20:21:00,65.3,64.0,29.88,SE,133,0.0,1.0,96,0.00,,,0.30,weatherlink.com 1.10,2017-05-29 00:21:00,
2017-05-28 20:36:00,65.3,64.0,29.88,ESE,112,0.0,0.0,96,0.00,,,0.30,weatherlink.com 1.10,2017-05-29 00:36:00,